TOURFACTS.DK  
Stats and Facts from Tour de France.

Tour de France 2019 starts in 348 days
  Riders   Stages   Teams   Summits   Yearly  


 
Search by year

After 2018 - Stage 14:
 15000 starters.
  5163 different riders.
  639 teams.
  2246 stages.
  456 restdays.
  441957.60 km.
  5678 abandonnees.


Top 3
GC
Christopher Froome86:20:55
Rigoberto Urán86:21:49
Romain Bardet86:23:15
Climb
Warren Barguil169 pt.
Primoz Roglic80 pt.
Thomas De Gendt64 pt.
Sprint
Michael Matthews359 pt.
André Greipel234 pt.
Edvald Boasson Hagen220 pt.
Youth
Simon Yates86:27:09
Louis Meintjes86:29:15
Emanuel Buchmann86:54:16
Facts from Tour de France 1935
  |   Stages.  |   Stage winners.  |   Days in yellow  |   Average speed.  |   Route.  |   Teams.  |   All riders.  |   Rookies.  |  

  |   Withdrawls.  |   GC.  |   Polka  |   Green  |   White  |   Summits. (In tour)  |   Miscellaneous.  |  

Stage 13a on July 17th. 1935
         Owning:    Romain Maes    
Pick a stage:  1 2 3 4 5a 5b 6 7 8 9 10 11 12 13a 13b 14a 14b 15 16 17 18a 18b 19a 19b 20a 20b 21
From: Marseille    To: NîmesDist:112.00 km.

Average speed for all riders in stage:  26,233 km./hr.
    Place:Name:Team:Time:Km/h:
ITAVasco BergamaschiITAItaly04:09:16  +  00:00:00=26,959 
BELFélicien VervaeckeBELBelgium04:12:02  +  00:02:46=26,663 
BELJules LowieBELBelgium B04:12:02  +  00:02:46=26,663 
4 BELJean AertsBELBelgium04:15:54  +  00:06:38=26,260 
5 FRALouis ThiétardTouristes Routiers04:15:54  +  00:06:38=26,260 
6 FRAJoseph MauclairTouristes Routiers04:15:54  +  00:06:38=26,260 
7 FRACharles PelissierFRAFrance B04:15:54  +  00:06:38=26,260 
8 GERGeorg StachDEUGermany B04:15:54  +  00:06:38=26,260 
9 SUIKurt StettlerCHESwitzerland04:15:54  +  00:06:38=26,260 
10 FRAJulien MoineauFRAFrance B04:15:54  +  00:06:38=26,260 
11 ITAOreste BernardoniTouristes Routiers04:15:54  +  00:06:38=26,260 
12 FRABenoit FaureTouristes Routiers04:15:54  +  00:06:38=26,260 
13 FRACharles BertyTouristes Routiers04:15:54  +  00:06:38=26,260 
14 FRAJean FontenayFRAFrance B04:15:54  +  00:06:38=26,260 
15 FRAFernand FayolleTouristes Routiers04:15:54  +  00:06:38=26,260 
16 ITAAldo BertoccoTouristes Routiers04:15:54  +  00:06:38=26,260 
17 FRAPaul ChocqueTouristes Routiers04:15:54  +  00:06:38=26,260 
18 ESPThéodore LadronTouristes Routiers04:15:54  +  00:06:38=26,260 
19 FRAPierre-Marie CloarecTouristes Routiers04:15:54  +  00:06:38=26,260 
20 FRARené BernardTouristes Routiers04:15:54  +  00:06:38=26,260 
21 FRAGabriel RuozziTouristes Routiers04:15:54  +  00:06:38=26,260 
22 ESPManuel GarciaTouristes Routiers04:15:54  +  00:06:38=26,260 
23 FRAPierre CoganTouristes Routiers04:15:54  +  00:06:38=26,260 
24 FRAGeorges HubatzTouristes Routiers04:15:54  +  00:06:38=26,260 
25 ITADante GianelloTouristes Routiers04:15:54  +  00:06:38=26,260 
26 GERGeorge HaendelDEUGermany B04:15:54  +  00:06:38=26,260 
27 SUILéo AmbergCHESwitzerland04:15:54  +  00:06:38=26,260 
28 GERFerdinand IckesDEUGermany B04:15:54  +  00:06:38=26,260 
29 FRAGeorges SpeicherFRAFrance04:15:54  +  00:06:38=26,260 
30 FRAAndré LeducqFRAFrance04:15:54  +  00:06:38=26,260 
31 GEROtto WeckerlingDEUGermany04:15:54  +  00:06:38=26,260 
32 GERGeorg UmbenhauerDEUGermany04:15:54  +  00:06:38=26,260 
33 GEROskar ThierbachDEUGermany04:15:54  +  00:06:38=26,260 
34 ESPSalvador CardonaESPSpain04:15:54  +  00:06:38=26,260 
35 ESPAntonio PriorESPSpain04:15:54  +  00:06:38=26,260 
36 ITALuigi GiacobbeITAItaly04:15:54  +  00:06:38=26,260 
37 ITAFrancesco CamussoITAItaly04:15:54  +  00:06:38=26,260 
38 BELRomain MaesBELBelgium04:15:54  +  00:06:38=26,260 
39 FRARené Le GrevesFRAFrance04:15:54  +  00:06:38=26,260 
40 BELLouis HardiquestBELBelgium04:15:54  +  00:06:38=26,260 
41 ITAOrlando TeaniITACadetti Italiens04:15:54  +  00:06:38=26,260 
42 ITAAmbrogio MorelliITACadetti Italiens04:15:54  +  00:06:38=26,260 
43 FRARené ViettoFRAFrance04:15:54  +  00:06:38=26,260 
44 BELSylvère MaesBELBelgium B04:15:54  +  00:06:38=26,260 
45 BELAntoine DignefBELBelgium B04:15:54  +  00:06:38=26,260 
46 ITAPietro RimoldiITACadetti Italiens04:15:54  +  00:06:38=26,260 
47 FRAMaurice ArchambaudFRAFrance04:16:38  +  00:07:22=26,185 
48 GERBruno RothDEUGermany B04:17:01  +  00:07:45=26,146 
49 ESPVicente BacheroESPSpain B04:18:25  +  00:09:09=26,005 
50 SUIFritz HartmannCHESwitzerland04:18:25  +  00:09:09=26,005 
51 FRAGeorges LachatTouristes Routiers04:22:16  +  00:13:00=25,623 
52 GERWilly KutschbachDEUGermany04:22:16  +  00:13:00=25,623 
53 FRAHonore GranierTouristes Routiers04:24:51  +  00:15:35=25,373 


Todays birthdays.

1877  Antoine Perrichon
1878  Auguste Berthault
1911  Théo Herckenrath
1924  Carlo Lafranchi
1931  Armand Di Caro
1937  Jean-Claude Lebaube
1951  Giovanni Battaglin
1961  Pascal Jules
1962  Jean-Claude Leclercq
1976  Janek Tombak
1978  Francisco Pérez
1983  Dries Devenyns




Visits: